TimeCDT,TemperatureF,Dew PointF,Humidity,Sea Level PressureIn,VisibilityMPH,Wind Direction,Wind SpeedMPH,Gust SpeedMPH,PrecipitationIn,Events,Conditions,WindDirDegrees,DateUTC
12:15 AM,77.9,64.4,63,30.01,10.0,SW,5.8,-,N/A,,Clear,230,2013-08-28 05:15:00
12:35 AM,76.8,64.4,65,30.01,10.0,SW,4.6,-,N/A,,Clear,230,2013-08-28 05:35:00
12:55 AM,77.0,64.4,65,30.00,10.0,SW,6.9,-,N/A,,Clear,230,2013-08-28 05:55:00
1:15 AM,77.7,64.4,63,30.00,10.0,WSW,5.8,-,N/A,,Clear,240,2013-08-28 06:15:00
1:35 AM,77.7,64.6,64,30.00,10.0,WSW,6.9,-,N/A,,Clear,240,2013-08-28 06:35:00
1:55 AM,77.0,64.4,65,30.00,10.0,WSW,8.1,-,N/A,,Clear,240,2013-08-28 06:55:00
2:15 AM,77.4,64.4,64,30.00,10.0,WSW,8.1,-,N/A,,Clear,240,2013-08-28 07:15:00
2:35 AM,77.0,64.4,65,29.99,10.0,WSW,6.9,-,N/A,,Clear,240,2013-08-28 07:35:00
2:55 AM,77.0,64.4,65,29.99,10.0,WSW,8.1,-,N/A,,Clear,240,2013-08-28 07:55:00
3:15 AM,77.0,64.4,65,30.00,10.0,WSW,8.1,-,N/A,,Clear,240,2013-08-28 08:15:00
3:35 AM,76.6,64.4,66,30.00,10.0,WSW,5.8,-,N/A,,Clear,240,2013-08-28 08:35:00
3:55 AM,75.4,64.6,69,30.00,10.0,WSW,5.8,-,N/A,,Clear,240,2013-08-28 08:55:00
4:15 AM,75.4,64.6,69,30.00,10.0,WSW,4.6,-,N/A,,Clear,240,2013-08-28 09:15:00
4:35 AM,75.2,64.4,69,30.00,10.0,WSW,4.6,-,N/A,,Clear,240,2013-08-28 09:35:00
4:55 AM,75.0,64.4,69,30.00,10.0,WSW,5.8,-,N/A,,Clear,240,2013-08-28 09:55:00
5:15 AM,74.5,64.4,71,30.01,10.0,WSW,3.5,-,N/A,,Clear,240,2013-08-28 10:15:00
5:35 AM,74.3,64.4,71,30.01,10.0,West,4.6,-,N/A,,Clear,260,2013-08-28 10:35:00
5:55 AM,73.8,64.4,72,30.02,10.0,West,4.6,-,N/A,,Clear,260,2013-08-28 10:55:00
6:15 AM,73.6,64.4,73,30.02,10.0,WSW,5.8,-,N/A,,Clear,240,2013-08-28 11:15:00
6:35 AM,73.8,64.4,72,30.02,10.0,WSW,4.6,-,N/A,,Clear,250,2013-08-28 11:35:00
6:55 AM,74.3,64.4,71,30.03,10.0,WSW,4.6,-,N/A,,Clear,250,2013-08-28 11:55:00
7:15 AM,75.2,64.6,69,30.03,10.0,WSW,4.6,-,N/A,,Clear,250,2013-08-28 12:15:00
7:35 AM,76.1,64.8,68,30.04,10.0,WSW,6.9,-,N/A,,Clear,250,2013-08-28 12:35:00
7:55 AM,77.0,65.3,67,30.03,10.0,WSW,5.8,-,N/A,,Clear,250,2013-08-28 12:55:00
8:15 AM,77.9,65.7,66,30.04,10.0,WSW,4.6,-,N/A,,Clear,250,2013-08-28 13:15:00
8:35 AM,79.0,65.8,64,30.04,10.0,WSW,8.1,-,N/A,,Clear,250,2013-08-28 13:35:00
8:55 AM,80.1,66.4,63,30.05,10.0,WSW,6.9,-,N/A,,Clear,250,2013-08-28 13:55:00
9:15 AM,81.5,66.2,60,30.05,10.0,WSW,8.1,-,N/A,,Clear,250,2013-08-28 14:15:00
9:35 AM,83.3,66.4,57,30.05,10.0,West,9.2,-,N/A,,Clear,270,2013-08-28 14:35:00
9:55 AM,83.8,66.0,55,30.05,10.0,West,12.7,19.6,N/A,,Clear,270,2013-08-28 14:55:00
10:15 AM,84.7,66.6,54,30.05,10.0,West,12.7,17.3,N/A,,Clear,270,2013-08-28 15:15:00
10:35 AM,85.8,67.1,53,30.04,10.0,West,9.2,16.1,N/A,,Clear,270,2013-08-28 15:35:00
10:55 AM,87.3,67.1,51,30.04,10.0,West,12.7,16.1,N/A,,Clear,270,2013-08-28 15:55:00
11:15 AM,88.0,66.9,49,30.04,10.0,West,12.7,-,N/A,,Clear,270,2013-08-28 16:15:00
11:35 AM,89.1,66.9,48,30.04,10.0,WSW,11.5,16.1,N/A,,Clear,250,2013-08-28 16:35:00
11:55 AM,90.5,66.4,45,30.04,10.0,West,10.4,16.1,N/A,,Clear,270,2013-08-28 16:55:00
12:15 PM,91.4,66.9,44,30.03,10.0,West,9.2,-,N/A,,Clear,270,2013-08-28 17:15:00
12:35 PM,91.8,66.7,44,30.03,10.0,West,9.2,-,N/A,,Clear,260,2013-08-28 17:35:00
12:55 PM,91.8,66.2,43,30.03,10.0,West,9.2,-,N/A,,Clear,280,2013-08-28 17:55:00
1:15 PM,92.5,65.7,41,30.03,10.0,WSW,11.5,17.3,N/A,,Clear,250,2013-08-28 18:15:00
1:35 PM,93.2,65.8,40,30.02,10.0,West,9.2,-,N/A,,Clear,280,2013-08-28 18:35:00
1:55 PM,93.9,64.2,37,30.02,10.0,West,9.2,-,N/A,,Clear,260,2013-08-28 18:55:00
2:15 PM,94.1,65.7,39,30.01,10.0,West,10.4,-,N/A,,Clear,270,2013-08-28 19:15:00
2:35 PM,94.5,65.1,38,30.01,10.0,West,9.2,-,N/A,,Clear,270,2013-08-28 19:35:00
2:55 PM,94.5,64.9,38,30.00,10.0,West,8.1,-,N/A,,Clear,260,2013-08-28 19:55:00
3:15 PM,94.6,64.6,37,30.00,10.0,West,8.1,-,N/A,,Clear,260,2013-08-28 20:15:00
3:35 PM,94.6,62.8,35,30.00,10.0,West,6.9,-,N/A,,Clear,270,2013-08-28 20:35:00
3:55 PM,95.0,63.9,36,30.00,10.0,West,4.6,-,N/A,,Clear,280,2013-08-28 20:55:00
4:15 PM,94.6,63.7,36,30.00,10.0,West,5.8,-,N/A,,Clear,260,2013-08-28 21:15:00
4:35 PM,94.8,64.9,37,30.00,10.0,West,5.8,-,N/A,,Clear,280,2013-08-28 21:35:00
4:55 PM,95.0,63.5,35,30.00,10.0,West,5.8,-,N/A,,Clear,270,2013-08-28 21:55:00
5:15 PM,94.5,64.4,37,29.99,10.0,SW,3.5,-,N/A,,Clear,230,2013-08-28 22:15:00
5:35 PM,93.4,64.9,39,30.00,10.0,WSW,5.8,-,N/A,,Clear,240,2013-08-28 22:35:00
5:55 PM,92.8,65.7,41,29.99,10.0,WSW,4.6,-,N/A,,Clear,240,2013-08-28 22:55:00
6:15 PM,92.3,66.4,42,29.99,10.0,SW,4.6,-,N/A,,Clear,230,2013-08-28 23:15:00
6:35 PM,90.9,67.6,46,29.99,10.0,SW,4.6,-,N/A,,Clear,230,2013-08-28 23:35:00
6:55 PM,89.4,68.7,50,29.99,10.0,SW,4.6,-,N/A,,Clear,220,2013-08-28 23:55:00
7:15 PM,88.0,68.9,53,30.00,10.0,Calm,Calm,-,N/A,,Clear,0,2013-08-29 00:15:00
7:35 PM,86.0,69.3,57,30.00,10.0,Calm,Calm,-,N/A,,Clear,0,2013-08-29 00:35:00
7:55 PM,84.4,70.7,63,30.00,10.0,Calm,Calm,-,N/A,,Clear,0,2013-08-29 00:55:00
8:15 PM,84.2,70.2,63,30.00,10.0,SW,3.5,-,N/A,,Clear,230,2013-08-29 01:15:00
8:35 PM,82.6,69.8,65,30.01,10.0,SW,5.8,-,N/A,,Clear,230,2013-08-29 01:35:00
8:55 PM,83.3,68.4,61,30.01,10.0,SW,3.5,-,N/A,,Clear,230,2013-08-29 01:55:00
9:15 PM,82.9,68.5,62,30.01,10.0,WSW,3.5,-,N/A,,Clear,240,2013-08-29 02:15:00
9:35 PM,82.4,68.2,62,30.02,10.0,WSW,3.5,-,N/A,,Clear,240,2013-08-29 02:35:00
9:55 PM,81.7,67.5,62,30.02,10.0,WSW,3.5,-,N/A,,Clear,240,2013-08-29 02:55:00
10:15 PM,80.8,67.1,63,30.02,10.0,WSW,4.6,-,N/A,,Clear,240,2013-08-29 03:15:00
10:35 PM,82.6,66.4,58,30.02,10.0,WSW,5.8,-,N/A,,Clear,240,2013-08-29 03:35:00
10:55 PM,81.5,66.6,60,30.02,10.0,West,3.5,-,N/A,,Clear,260,2013-08-29 03:55:00
11:15 PM,80.2,66.7,63,30.02,10.0,WSW,4.6,-,N/A,,Clear,250,2013-08-29 04:15:00
11:35 PM,80.8,66.4,61,30.02,10.0,West,3.5,-,N/A,,Clear,260,2013-08-29 04:35:00
11:55 PM,80.1,66.4,63,30.02,10.0,West,4.6,-,N/A,,Clear,260,2013-08-29 04:55:00